Location: Home
(42.5358°N, 72.7383°W)
Time: 11:31:32
(UTC-05:00)

A-11 Canister half - Pass Details

Date: 08 December 2021
Orbit: 1524 x 1684 km, 47.3° (Epoch: 19 January)

Event Time Altitude Azimuth Distance (km) Brightness Sun altitude
Rises 22:08:33 0° 200° (SSW) 4,880 - -62.2°
Reaches altitude 10° 22:12:05 10° 191° (S) 3,911 - -62.7°
Maximum altitude 22:20:40 33° 132° (SE) 2,550 - -63.9°
Drops below altitude 10° 22:29:17 10° 73° (ENE) 3,947 - -65.0°
Sets 22:32:51 0° 65° (ENE) 4,930 - -65.5°
